CZ-6A DEB, 56641

Orbit data source: Space-Track

CZ-6A DEB, 56641 is space debris in SSO originally from a launch on Fri, 11 Nov 2022 UTC launched from the Taiyaun Space Center, China (TSC). Debris objects in space refer to the collection of defunct objects orbiting the Earth. Examples of debris include non-operational satellites, rocket bodies, and fragments generated from explosions, collisions, or faulty payload assembly.

Loading next visibility...
Identifier
56641, 2022-151AFR
Orbit
SSO
Country
Flag of CNCN / PRC
Related business
Manufacturer
SAST
Mission
Spacecraft
Bus & Motor
Unknown
Mass
Unknown
Launch date (UTC)
2022-11-11 (4 years ago)
Launch vehicle
Unknown
Launch site
Taiyaun Space Center, China (TSC)
Object type
Payload
Rocket body
Debris
Shape & HBR
Unknown shape, 0.1 m
Radar Cross Section
Medium (>0.1 m² and <1 m²)

Expand to show TLE details & history
Last TLE update: 2 days ago

TLE from 2 days ago
0 CZ-6A DEB
1 56641U 22151AFR 26171.24536230  .00013924  00000-0  15399-2 0  9993
2 56641  98.6680 276.9128 0132118 172.2819 188.0467 14.81292277174191
Epoch: 2026-06-20T05:53Z
TLE epoch observation values (Epoch: 2026-06-20T05:53:19.302Z)
Latitude
-0.00007°
Longitude
-79.88037°
Altitude
719.907 km
Speed
7.446 km/s
True Right ascension
18h 27m 39s
True Declination
0° 00' 00"
Sunlit
Object was in full shadow at epoch
Visualization orbit readout
Latitude
Unknown
Longitude
Unknown
Altitude
Unknown
Speed
Unknown
Apparent Right ascension
Unknown
Apparent Declination
Unknown
Sunlit
N/A
Visualization observer readout
Local Sidereal Time
21:25:13
Azimuth
Unknown
Elevation
Unknown
Doppler factor
Unknown
Orbital elements
Apogee altitude
714.811 km
Perigee altitude
529.834 km
Semi-major axis
7,000.459 km
Eccentricity
0.01321
Inclination
98.668°
RAAN
276.9128°
Arg. of periapsis
172.2819°
True anomaly
187.83819°
Mean anomaly
188.0467°
Eccentric anomaly
187.94211°
Mean motion
3.70556 °/min
Orbital period
97.15 mins
BSTAR
0.0015399
Loading maneuver chart data...
Computing Atmospheric mass density...
Loading historical data...
Loading historical data...
Loading historical data...
Loading historical data...
Loading historical data...
Loading historical data...
Loading historical data...

Documentation

Showing up to 5 results
|